PST,Max TemperatureF,Mean TemperatureF,Min TemperatureF,Max Dew PointF,MeanDew PointF,Min DewpointF,Max Humidity, Mean Humidity, Min Humidity, Max Sea Level PressureIn, Mean Sea Level PressureIn, Min Sea Level PressureIn, Max VisibilityMiles, Mean VisibilityMiles, Min VisibilityMiles, Max Wind SpeedMPH, Mean Wind SpeedMPH, Max Gust SpeedMPH,PrecipitationIn, CloudCover, Events, WindDirDegrees
2011-11-1,120,82,44,54,38,10,100,54,10,30.10,30.05,30.01,10,10,9,13,4,16,0.00,0,,80
2011-11-2,136,96,60,45,40,37,71,42,31,30.17,30.12,30.05,10,10,7,10,4,,0.00,0,,167
2011-11-3,118,96,73,90,69,50,95,48,30,30.04,29.89,29.76,10,10,4,14,9,17,0.09,1,,168
2011-11-4,111,73,35,88,58,34,100,79,52,29.89,29.84,29.79,10,10,10,10,4,,0.00,2,,161
2011-11-5,50,44,37,39,34,30,87,71,58,30.00,29.94,29.87,10,9,2,13,8,18,0.01,5,,144
2011-11-6,46,44,39,43,41,37,100,90,81,30.09,29.98,29.89,10,7,2,13,7,18,0.00,7,,151
2011-11-7,53,43,33,43,37,34,100,80,54,30.25,30.18,30.11,10,10,9,10,2,,0.00,0,,100
2011-11-8,55,46,37,41,37,34,93,72,54,30.32,30.28,30.25,10,10,10,9,5,,0.00,0,,93
2011-11-9,62,50,39,43,37,34,93,65,42,30.30,30.25,30.18,10,10,5,10,6,,0.00,0,,109
2011-11-10,66,56,46,39,31,27,62,41,26,30.19,30.12,30.00,10,10,10,14,7,,0.00,0,,108
2011-11-11,62,55,48,46,35,27,93,50,32,29.95,29.85,29.77,10,10,4,13,7,17,0.00,3,,127
2011-11-12,60,52,44,48,46,43,100,82,55,29.94,29.89,29.84,10,10,6,9,3,,0.00,2,,17
2011-11-13,62,55,48,46,45,43,87,73,52,29.99,29.96,29.93,10,10,10,10,5,,0.00,2,,97
2011-11-14,62,53,44,48,46,43,100,77,59,30.04,30.00,29.97,10,10,10,12,3,,0.00,3,,284
2011-11-15,62,53,44,46,44,39,93,76,55,30.18,30.13,30.05,10,10,3,9,5,,0.00,0,,108
2011-11-16,64,54,44,46,43,41,87,71,49,30.23,30.18,30.13,10,10,10,8,3,,0.00,0,,117
2011-11-17,60,53,46,48,44,39,87,72,55,30.20,30.11,30.01,10,10,8,14,8,17,0.00,2,,147
2011-11-18,51,48,44,48,43,39,100,86,66,30.02,29.95,29.87,10,10,3,16,9,23,0.00,7,,192
2011-11-19,50,44,39,43,37,34,100,76,54,29.95,29.89,29.80,10,10,8,13,5,18,0.00,3,,163
2011-11-20,51,45,39,45,41,37,100,86,67,30.00,29.85,29.72,10,9,3,21,9,30,0.00,6,,128
2011-11-21,55,47,39,43,40,36,100,79,58,30.26,30.16,30.01,10,10,10,9,5,,0.00,1,,137
2011-11-22,57,50,42,43,40,37,93,76,54,30.28,30.21,30.13,10,10,4,9,5,,0.00,2,,133
2011-11-23,53,48,42,43,39,37,87,73,58,30.10,29.97,29.86,10,10,10,12,6,,0.00,0,,117
2011-11-24,50,47,44,50,43,36,100,85,62,30.19,30.02,29.88,10,7,1,12,7,,0.00,6,,123
2011-11-25,57,50,39,52,47,39,100,95,72,30.35,30.30,30.20,10,6,0,8,2,,0.00,5,,350
2011-11-26,62,50,39,52,43,37,100,80,54,30.41,30.36,30.33,10,10,8,8,3,,0.00,0,,136
2011-11-27,66,54,41,48,41,34,93,61,34,30.36,30.32,30.29,10,10,4,13,3,,0.00,0,,112
2011-11-28,68,55,42,48,39,34,100,61,32,30.29,30.25,30.21,10,10,4,9,4,,0.00,0,,108
2011-11-29,62,50,37,46,39,32,100,71,45,30.25,30.21,30.17,10,10,9,6,1,,0.00,0,,280
2011-11-30,62,48,33,39,29,21,100,57,20,30.25,30.17,30.14,10,10,0,17,4,29,0.00,0,,15